Location: Naloco
(16.5478°S, 37.1017°E)
Time: 02:39:41
(UTC+00:00)

Cosmos 1821 Rocket - Pass Details

Date: 13 August 2020
Orbit: 946 x 1004 km, 82.9° (Epoch: 23 September)

Event Time Altitude Azimuth Distance (km) Brightness Sun altitude
Rises 16:16:17 0° 170° (S) 3,631 6.8 -13.4°
Reaches altitude 10° 16:19:01 10° 161° (SSE) 2,679 6.0 -14.0°
Maximum altitude 16:24:31 34° 97° (E) 1,500 4.5 -15.3°
Drops below altitude 10° 16:29:57 10° 33° (NNE) 2,665 6.1 -16.6°
Sets 16:32:40 0° 24° (NNE) 3,609 6.8 -17.2°
